• In Denmark
  • List of Countries
  • For 7 days
  • Water Temperature
  • Satellite Maps
  • Weather Map
  • Weather Widgets
  • user-avatar
    Login

    Hourly Weather Szymanowice

    Today, 26 September, Wednesday

    Time Temperature Precipitation Wind Pressure Humidity
    00:00 +3°C° 0 mm 2 mps 747 mmHg 84%
    01:00 +3°C° 0 mm 2 mps 747 mmHg 85%
    02:00 +2°C° 0 mm 2 mps 747 mmHg 86%
    03:00 +2°C° 0 mm 2 mps 747 mmHg 87%
    04:00 +2°C° 0 mm 2 mps 748 mmHg 88%
    05:00 +4°C° 0 mm 1 mps 748 mmHg 84%
    06:00 +5°C° 0 mm 1 mps 748 mmHg 80%
    07:00 +6°C° 0 mm 1 mps 748 mmHg 76%
    08:00 +8°C° 0 mm 1 mps 748 mmHg 66%
    09:00 +9°C° 0 mm 2 mps 748 mmHg 56%
    10:00 +13°C° 0 mm 2 mps 748 mmHg 45%
    11:00 +14°C° 0 mm 2 mps 747 mmHg 42%
    12:00 +15°C° 0 mm 2 mps 747 mmHg 39%
    13:00 +15°C° 0 mm 2 mps 746 mmHg 36%
    14:00 +15°C° 0 mm 2 mps 746 mmHg 40%
    15:00 +15°C° 0 mm 2 mps 745 mmHg 44%
    16:00 +14°C° 0 mm 2 mps 745 mmHg 48%
    17:00 +13°C° 0 mm 2 mps 745 mmHg 51%
    18:00 +12°C° 0 mm 2 mps 744 mmHg 55%
    19:00 +10°C° 0 mm 1 mps 744 mmHg 58%
    20:00 +9°C° 0 mm 2 mps 744 mmHg 58%
    21:00 +9°C° 0 mm 2 mps 744 mmHg 58%
    22:00 +9°C° 0 mm 2 mps 744 mmHg 58%
    23:00 +9°C° 0 mm 2 mps 744 mmHg 57%

    Tomorrow, 27 September, Thursday

    Time Temperature Precipitation Wind Pressure Humidity
    00:00 +9°C° 0 mm 2 mps 743 mmHg 56%
    01:00 +8°C° 0 mm 2 mps 743 mmHg 56%
    02:00 +9°C° 0 mm 2 mps 743 mmHg 53%
    03:00 +9°C° 0 mm 2 mps 743 mmHg 51%
    04:00 +9°C° 0 mm 2 mps 742 mmHg 48%
    05:00 +9°C° 0 mm 3 mps 742 mmHg 49%
    06:00 +10°C° 0 mm 3 mps 742 mmHg 50%
    07:00 +10°C° 0 mm 3 mps 742 mmHg 50%
    08:00 +12°C° 0 mm 3 mps 742 mmHg 50%
    09:00 +13°C° 0 mm 3 mps 742 mmHg 50%
    10:00 +16°C° 0 mm 3 mps 742 mmHg 49%
    11:00 +16°C° 0 mm 3 mps 742 mmHg 51%
    12:00 +17°C° 0 mm 3 mps 742 mmHg 53%
    13:00 +18°C° 0 mm 3 mps 742 mmHg 55%
    14:00 +18°C° 0 mm 3 mps 741 mmHg 57%
    15:00 +18°C° 0 mm 2 mps 741 mmHg 59%
    16:00 +19°C° 0 mm 2 mps 740 mmHg 61%
    17:00 +17°C° 0 mm 2 mps 740 mmHg 67%
    18:00 +15°C° 0 mm 2 mps 740 mmHg 72%
    19:00 +13°C° 0 mm 2 mps 740 mmHg 78%
    20:00 +12°C° 0 mm 2 mps 740 mmHg 79%
    21:00 +12°C° 0 mm 2 mps 739 mmHg 80%
    22:00 +12°C° 0 mm 2 mps 739 mmHg 80%
    23:00 +12°C° 0 mm 2 mps 738 mmHg 80%

    Day after tomorrow, 28 September, Friday

    Time Temperature Precipitation Wind Pressure Humidity
    00:00 +10°C° 0 mm 2 mps 738 mmHg 80%
    01:00 +10°C° 0 mm 2 mps 737 mmHg 80%
    02:00 +10°C° 0 mm 2 mps 737 mmHg 80%
    03:00 +10°C° 0 mm 2 mps 736 mmHg 80%
    04:00 +10°C° 0 mm 2 mps 736 mmHg 80%
    05:00 +10°C° 0 mm 2 mps 736 mmHg 78%
    06:00 +12°C° 0 mm 2 mps 736 mmHg 75%
    07:00 +13°C° 0 mm 2 mps 735 mmHg 73%
    08:00 +15°C° 0 mm 2 mps 735 mmHg 65%
    09:00 +17°C° 0 mm 3 mps 735 mmHg 56%
    10:00 +20°C° 0 mm 3 mps 735 mmHg 48%
    11:00 +20°C° 0 mm 3 mps 735 mmHg 46%
    12:00 +21°C° 0 mm 3 mps 735 mmHg 44%
    13:00 +22°C° 0 mm 3 mps 734 mmHg 41%
    14:00 +21°C° 0 mm 3 mps 734 mmHg 45%
    15:00 +20°C° 0 mm 2 mps 734 mmHg 49%
    16:00 +19°C° 0 mm 2 mps 733 mmHg 53%
    17:00 +17°C° 0 mm 2 mps 733 mmHg 60%
    18:00 +15°C° 0 mm 2 mps 734 mmHg 67%
    19:00 +13°C° 0 mm 2 mps 734 mmHg 74%
    20:00 +13°C° 0 mm 1 mps 734 mmHg 78%
    21:00 +12°C° 0 mm 1 mps 734 mmHg 82%
    22:00 +12°C° 0 mm 1 mps 734 mmHg 86%
    23:00 +12°C° 0 mm 1 mps 734 mmHg 86%

    29 September, Saturday

    Time Temperature Precipitation Wind Pressure Humidity
    00:00 +12°C° 0 mm 1 mps 734 mmHg 87%
    01:00 +12°C° 0 mm 1 mps 734 mmHg 87%
    02:00 +11°C° 0 mm 1 mps 734 mmHg 87%
    03:00 +10°C° 0 mm 2 mps 734 mmHg 87%
    04:00 +10°C° 0 mm 2 mps 734 mmHg 86%
    05:00 +9°C° 0.2 mm 2 mps 735 mmHg 87%
    06:00 +9°C° 0.2 mm 2 mps 735 mmHg 87%
    07:00 +9°C° 0.2 mm 2 mps 735 mmHg 88%
    08:00 +9°C° 0.3 mm 2 mps 736 mmHg 84%
    09:00 +10°C° 0.3 mm 2 mps 736 mmHg 81%
    10:00 +10°C° 0.3 mm 2 mps 736 mmHg 78%
    11:00 +11°C° 0.2 mm 3 mps 736 mmHg 74%
    12:00 +11°C° 0.2 mm 3 mps 737 mmHg 70%
    13:00 +12°C° 0.2 mm 3 mps 737 mmHg 66%
    14:00 +12°C° 0.1 mm 3 mps 737 mmHg 66%
    15:00 +11°C° 0.1 mm 3 mps 737 mmHg 65%
    16:00 +11°C° 0.1 mm 3 mps 737 mmHg 64%
    17:00 +10°C° 0 mm 3 mps 738 mmHg 67%
    18:00 +9°C° 0 mm 3 mps 738 mmHg 70%
    19:00 +8°C° 0 mm 2 mps 738 mmHg 73%
    20:00 +7°C° 0 mm 2 mps 738 mmHg 75%
    21:00 +6°C° 0 mm 2 mps 739 mmHg 77%
    22:00 +6°C° 0 mm 2 mps 739 mmHg 78%
    23:00 +5°C° 0 mm 2 mps 739 mmHg 80%

    30 September, Sunday

    Time Temperature Precipitation Wind Pressure Humidity
    00:00 +6°C° 0 mm 1 mps 739 mmHg 81%
    01:00 +5°C° 0 mm 1 mps 739 mmHg 83%
    02:00 +5°C° 0 mm 1 mps 739 mmHg 84%
    03:00 +5°C° 0 mm 1 mps 739 mmHg 85%
    04:00 +4°C° 0 mm 1 mps 739 mmHg 86%
    05:00 +5°C° 0 mm 1 mps 739 mmHg 83%
    06:00 +6°C° 0 mm 1 mps 739 mmHg 81%
    07:00 +6°C° 0 mm 1 mps 739 mmHg 78%
    08:00 +7°C° 0 mm 2 mps 739 mmHg 71%
    09:00 +9°C° 0 mm 2 mps 739 mmHg 64%
    10:00 +11°C° 0 mm 3 mps 739 mmHg 56%
    11:00 +12°C° 0 mm 3 mps 738 mmHg 55%
    12:00 +13°C° 0 mm 3 mps 738 mmHg 54%
    13:00 +14°C° 0 mm 3 mps 737 mmHg 53%
    14:00 +14°C° 0 mm 3 mps 737 mmHg 56%
    15:00 +13°C° 0 mm 3 mps 737 mmHg 60%
    16:00 +14°C° 0 mm 2 mps 736 mmHg 63%
    17:00 +12°C° 0 mm 2 mps 736 mmHg 71%
    18:00 +9°C° 0 mm 2 mps 736 mmHg 80%
    19:00 +9°C° 0 mm 1 mps 736 mmHg 88%
    20:00 +8°C° 0 mm 1 mps 736 mmHg 89%
    21:00 +8°C° 0 mm 1 mps 736 mmHg 91%
    22:00 +8°C° 0 mm 1 mps 735 mmHg 92%
    23:00 +8°C° 0 mm 1 mps 735 mmHg 92%

    1 October, Monday

    Time Temperature Precipitation Wind Pressure Humidity
    00:00 +8°C° 0 mm 1 mps 735 mmHg 92%
    01:00 +8°C° 0 mm 1 mps 734 mmHg 92%
    02:00 +8°C° 0 mm 1 mps 734 mmHg 92%
    03:00 +8°C° 0 mm 1 mps 734 mmHg 91%
    04:00 +8°C° 0 mm 1 mps 733 mmHg 91%
    05:00 +8°C° 0 mm 1 mps 733 mmHg 88%
    06:00 +9°C° 0 mm 1 mps 733 mmHg 85%
    07:00 +10°C° 0 mm 1 mps 733 mmHg 82%
    08:00 +13°C° 0 mm 1 mps 732 mmHg 74%
    09:00 +15°C° 0 mm 2 mps 732 mmHg 65%
    10:00 +18°C° 0 mm 2 mps 732 mmHg 56%
    11:00 +19°C° 0 mm 2 mps 731 mmHg 53%
    12:00 +20°C° 0 mm 2 mps 731 mmHg 51%
    13:00 +21°C° 0 mm 2 mps 730 mmHg 48%
    14:00 +20°C° 0 mm 2 mps 730 mmHg 52%
    15:00 +19°C° 0 mm 2 mps 729 mmHg 56%
    16:00 +19°C° 0 mm 2 mps 729 mmHg 60%
    17:00 +17°C° 0 mm 2 mps 729 mmHg 65%
    18:00 +16°C° 0 mm 2 mps 728 mmHg 70%
    19:00 +15°C° 0 mm 2 mps 728 mmHg 75%
    20:00 +14°C° 0 mm 2 mps 728 mmHg 75%
    21:00 +14°C° 0 mm 1 mps 728 mmHg 76%
    22:00 +14°C° 0 mm 1 mps 727 mmHg 77%
    23:00 +14°C° 0.3 mm 1 mps 727 mmHg 80%
    Show more